Regional Weather Roundup
Issued by NWS

Home | Current Version | Previous Version | Graphics & Text | Print | Product List | Glossary On
Versions: 1 2 3 4 5 6 7 8 9 10 11 12 13 14 15 16 17 18 19 20 21 22 23 24 25 26 27 28 29 30 31 32 33 34 35 36 37 38 39 40 41 42 43 44 45 46 47 48 49 50
000
ASUS43 KDMX 202001
RWRIA

WEATHER ROUNDUP FOR IOWA
NATIONAL WEATHER SERVICE DES MOINES IA
300 PM CDT SUN AUG 20 2017

NOTE: "FAIR" INDICATES FEW OR NO CLOUDS BELOW 12,000 FEET WITH NO
SIGNIFICANT WEATHER AND/OR OBSTRUCTIONS TO VISIBILITY.

* - THESE STATIONS ARE NOT NWS STATIONS...THUS NOT UNDER NWS
QUALITY CONTROL.  THEY ALSO DO NOT REPORT WEATHER SUCH
AS PRECIPITATION OR FOG.

IAZ001>003-012>014-020>022-031>034-043>046-202100-
   NORTHWEST IOWA

CITY           SKY/WX    TMP DP  RH WIND       PRES   REMARKS
CARROLL *      SUNNY     84  70  61 W5        29.95F HX  88
DENISON *      SUNNY     84  70  61 VRB7      29.97F HX  88
LE MARS *      PTSUNNY  100 N/A N/A VRB6      29.95S
ORANGE CITY *  SUNNY     84  68  58 CALM      29.96F HX  87
SHELDON *      SUNNY     82  68  61 VRB3      29.95S HX  85
SIOUX CITY     MOSUNNY   86  71  60 VRB6      29.94S HX  91
SPENCER        SUNNY     84  66  54 S5        29.97S HX  86
STORM LAKE *   SUNNY     82  70  65 S5        29.97F HX  86
$$

IAZ055>058-069>071-079>083-090>094-202100-
   SOUTHWEST IOWA

CITY           SKY/WX    TMP DP  RH WIND       PRES   REMARKS
ATLANTIC *     MOSUNNY   75  68  78 S5        29.97S
AUDUBON *      SUNNY     81  72  74 S3        29.98S HX  84
CLARINDA *     CLOUDY    68  68 100 SW8       30.04R FOG
COUNCIL BLFS * CLOUDY    73  72  94 E6        29.98S
CRESTON *      CLOUDY    70  66  88 W3        30.00F
HARLAN  *      MOSUNNY   82  72  69 CALM      29.99F HX  87
LAMONI         CLOUDY    71  64  78 VRB6      29.99S
RED OAK *      RAIN      68  68 100 E7        29.97F
SHENANDOAH *   CLOUDY    77  68  73 VRB5G17   29.96F
$$

IAZ047>049-059>061-072>074-084-202100-
   CENTRAL IOWA

CITY           SKY/WX    TMP DP  RH WIND       PRES   REMARKS
AMES           CLOUDY    84  70  62 W9        29.94S HX  88
ANKENY *       PTSUNNY   79  68  69 W10       29.96R HX  81
BOONE *        CLOUDY    86  68  54 W9        29.94F HX  89
CHARITON *     CLOUDY    73  66  78 W10       29.98S
DES MOINES     CLOUDY    78  68  71 W12       29.95R HX  80
GRINNELL*      PTSUNNY   76  67  73 CALM      29.97R
KNOXVILLE *    CLOUDY    75  68  78 W3        29.96R
MARSHALLTOWN   CLOUDY    83  68  60 VRB3      29.94R HX  86
NEWTON *       PTSUNNY   77  68  73 CALM      29.96R
PELLA *        PTSUNNY   77  67  72 W3        29.98R
PERRY *          N/A     82  72  70 SW6       29.95F HX  87
$$

IAZ004>006-015-016-023>025-035-036-202100-
   NORTH CENTRAL IOWA

CITY           SKY/WX    TMP DP  RH WIND       PRES   REMARKS
ALGONA *       SUNNY     84  68  58 SW6       29.97S HX  87
CLARION *      SUNNY     84  70  61 W8        29.95F HX  88
ESTHERVILLE    SUNNY     81  66  60 CALM      29.96F HX  83
FORT DODGE *   SUNNY     84  66  54 W7        29.96F HX  86
MASON CITY     SUNNY     84  65  52 W8        29.96F HX  86
FOREST CITY *    N/A     82  64  54 W8        29.97S HX  84
WEBSTER CITY * SUNNY     84  66  54 W8        29.93S HX  86
IOWA FALLS *     N/A     84  67  55 NW3       29.96S HX  86
$$

IAZ007>011-017>019-026>030-037>042-050>054-066-202100-
   NORTHEAST IOWA

CITY           SKY/WX    TMP DP  RH WIND       PRES   REMARKS
CEDAR RAPIDS   CLOUDY    77  67  71 S13       29.96R
CHARLES CITY * SUNNY     82  66  57 CALM      29.95F HX  85
CLINTON *      CLOUDY    74  70  87 E7        29.98F
DECORAH *      SUNNY     82  64  54 CALM      29.94F HX  84
DUBUQUE        CLOUDY    74  67  78 NE9       29.98F
MONTICELLO *   CLOUDY    73  68  83 SE7       29.97R
OELWEIN *      SUNNY     84  66  54 CALM      29.96R HX  86
WATERLOO       SUNNY     85  61  44 W5        29.93S HX  85
$$

IAZ064-065-067-068-078-202100-
   EAST CENTRAL IOWA

CITY           SKY/WX    TMP DP  RH WIND       PRES   REMARKS
DAVENPORT      CLOUDY    74  68  81 SE6       29.99F
IOWA CITY      CLOUDY    80  68  66 SE8       29.98S HX  83
MUSCATINE *    CLOUDY    84  66  54 SE10      29.96F HX  86
QUAD CITIES    MOSUNNY   77  68  73 E8        29.96F
$$

IAZ062-063-075>077-085>089-095>099-202100-
   SOUTHEAST IOWA

CITY           SKY/WX    TMP DP  RH WIND       PRES   REMARKS
BURLINGTON     CLOUDY    83  69  62 SE10      29.96F HX  86
FAIRFIELD *    CLOUDY    84  66  54 SW12      29.95R HX  86
FORT MADISON * MOSUNNY   82  72  69 SE6       29.98S HX  87
KEOKUK *       MOSUNNY   84  66  54 S8        29.97S HX  86
OTTUMWA        CLOUDY    81  65  58 SW9       29.96R HX  83
WASHINGTON *   CLOUDY    82  72  69 SE6       29.97S HX  87
$$

ABBREVIATIONS USED IN REMARKS
   TC - TEMPERATURES IN CELSIUS
  WCI - WIND CHILL INDEX
   HX - HEAT INDEX
  VSB - VISIBILITY
$$





USA.gov is the U.S. government's official web portal to all federal, state and local government web resources and services.